Terug naar catalogus

STARLINK-31860

ActiefCommunicatieVLEO
NORAD 59670·PAYLOAD·🇺🇸 United States

Gelanceerd May 6, 2024 vanaf Cape Canaveral Space Force Station

Loading…

Volgende Passages (komende 24 uur)

TLE

VersSource: CelesTrak SupGP

Epoch: Sep 15, 2026, 02:21 UTC

1 59670C 24084S   26258.09840278 -.00029628  00000+0 -10726-2 0  2580
2 59670  43.0012  48.6431 0001430 277.3295 342.3373 15.27610382    19

Volg STARLINK-31860 in realtime met AllMySat

Download on the App Store